Regional Weather Roundup
Issued by NWS

Home | Current Version | Previous Version | Text Only | Print | Product List | Glossary Off
Versions: 1 2 3 4 5 6 7 8 9 10 11 12 13 14 15 16 17 18 19 20 21 22 23 24 25 26 27 28 29 30 31 32 33 34 35 36 37 38 39 40 41 42 43 44 45 46 47 48 49 50

991
ASUS44 KMEG 211710
RWRTN
TENNESSEE HOURLY STATE WEATHER ROUNDUP
NATIONAL WEATHER SERVICE MEMPHIS TN
1100 AM CST TUE FEB 21 2017

TNZ002-004-019-021-049-052-054-088>092-211800-
WEST TENNESSEE

CITY           SKY/WX    TMP DP  RH WIND       PRES   REMARKS
MEMPHIS INTL   CLOUDY    61  60  97 S14       29.90R
NWS MEMPHIS      N/A     62 N/A N/A MISG        N/A
JACKSON        CLOUDY    64  58  80 S10       29.92S
UNION CITY     CLOUDY    61  61 100 CALM      29.92R
PARIS          SUNNY     63  55  77 S12       29.92R
HUNTINGDON     MOSUNNY   66  57  72 S16       29.92R
$$

TNZ008-025-027-028-033-062-065-066-211800-
NORTH MIDDLE TENNESSEE

CITY           SKY/WX    TMP DP  RH WIND       PRES   REMARKS
NASHVILLE      CLOUDY    68  51  54 S18G24    29.98F
PORTLAND       PTSUNNY   66  50  55 S9        29.98F
CLARKSVILLE    CLOUDY    62  53  72 SE13      29.93F
SMYRNA         CLOUDY    68  54  60 S14G21    29.99F
COOKEVILLE     MOSUNNY   68  50  52 S15G31    30.01F
GALLATIN       CLOUDY    68  52  56 S8        30.01F
CROSSVILLE     SUNNY     65  47  52 S13G24    30.07S
$$

TNZ061-075-076-078-094-096-097-211800-
SOUTH MIDDLE TENNESSEE

CITY           SKY/WX    TMP DP  RH WIND       PRES   REMARKS
FAYETTEVILLE   PTSUNNY   63  54  72 SE12      30.02S
TULLAHOMA      PTSUNNY   64  50  59 S12       30.03R
WINCHESTER     CLOUDY    63  50  63 SE16      30.04S
MCMINNVILLE    PTSUNNY   68  52  56 S9        30.02S
COLUMBIA       PTSUNNY   66  59  77 S14       29.94S
SHELBYVILLE    CLOUDY    66  55  68 S15       30.01S
$$

TNZ017-018-042-046-047-211800-
NORTHEAST TENNESSEE

CITY           SKY/WX    TMP DP  RH WIND       PRES   REMARKS
TRI CITIES     PTSUNNY   68  41  37 SE12      30.10F
ELIZABETHTON   MOSUNNY   64  43  45 E10       30.10F
$$

TNZ012-013-036-069-073-074-211800-
CENTRAL EAST TENNESSEE

CITY           SKY/WX    TMP DP  RH WIND       PRES   REMARKS
KNOXVILLE      CLOUDY    69  44  40 N5        30.06S
OAK RIDGE      MOSUNNY   68  43  40 VRB3      30.09S
GATLINBURG     SUNNY     66  45  45 E3        30.06F
MORRISTOWN     SUNNY     68  41  37 VRB5G12   30.08S
JACKSBORO      CLOUDY    66  43  42 SE5       30.11R
$$

TNZ083-085-099-211800-
SOUTHEAST TENNESSEE

CITY           SKY/WX    TMP DP  RH WIND       PRES   REMARKS
CHATTANOOGA    PTSUNNY   68  45  43 S10       30.07F
$$

SKY/WX REPORTED AS FAIR MEANS FEW OR NO CLOUDS BELOW
12 THOUSAND FEET.





USA.gov is the U.S. government's official web portal to all federal, state and local government web resources and services.